FW2977 Weather Reports


Display with metric or nautical units.
time (UTC)temp
F
wind
direction
speed
MPH
gust
MPH
rain 1hr
in
rain 24hr
in
rain mn
in
humidity
%
barometer
mb
20260906193036 69 235 1.0 4.0 0.00 0.00 0.00 68 963.6
20260906191543 69 277 2.0 4.0 0.00 0.00 0.00 68 963.6
20260906190041 69 107 1.0 4.0 0.00 0.00 0.00 71 963.6
20260906184536 69 190 1.0 4.0 0.00 0.00 0.00 69 963.7
20260906183037 70 104 1.0 6.0 0.00 0.00 0.00 69 963.7
20260906181539 69 227 2.0 4.0 0.00 0.00 0.00 76 963.6
20260906180033 68 294 1.0 6.0 0.00 0.00 0.00 71 963.6
20260906174533 68 275 0.0 3.0 0.00 0.00 0.00 75 963.7
20260906173034 69 184 1.0 5.0 0.00 0.00 0.00 73 963.8
20260906171532 70 13 2.0 5.0 0.00 0.00 0.00 72 963.9
20260906170030 69 321 1.0 4.0 0.00 0.00 0.00 72 963.9
20260906164530 70 207 0.0 3.0 0.00 0.00 0.00 78 963.8
20260906163030 70 158 1.0 3.0 0.00 0.00 0.00 72 964.0
20260906161529 69 54 1.0 3.0 0.00 0.00 0.00 75 964.0
20260906160034 68 240 0.0 2.0 0.00 0.00 0.00 77 964.3
20260906154537 69 266 1.0 7.0 0.00 0.00 0.00 77 964.1
20260906153022 68 201 1.0 6.0 0.00 0.00 0.00 81 964.0
20260906151516 67 215 0.0 3.0 0.00 0.00 0.00 84 964.0
20260906150019 66 220 1.0 3.0 0.00 0.00 0.00 84 963.9
20260906144509 63 208 0.0 3.0 0.00 0.00 0.00 87 963.8
20260906143008 62 196 0.0 2.0 0.00 0.00 0.00 88 963.8
20260906141506 63 221 0.0 0.0 0.00 0.00 0.00 88 963.9
20260906140009 63 275 1.0 4.0 0.00 0.00 0.00 89 963.7
20260906134501 61 202 1.0 4.0 0.00 0.00 0.00 92 963.7
20260906133106 61 180 0.0 2.0 0.00 0.00 0.00 94 963.7
20260906131603 61 109 1.0 4.0 0.00 0.00 0.00 95 963.5
20260906130055 59 57 0.0 5.0 0.00 0.00 0.00 97 963.8
20260906124552 59 203 0.0 0.0 0.00 0.00 0.00 97 963.5
20260906123050 58 203 0.0 0.0 0.00 0.00 0.00 97 963.4
20260906121549 58 203 0.0 2.0 0.00 0.00 0.00 97 963.3
20260906120047 58 203 0.0 2.0 0.00 0.00 0.00 97 963.3
20260906114549 58 55 0.0 2.0 0.00 0.00 0.00 97 963.1
20260906113049 57 56 0.0 2.0 0.00 0.00 0.00 97 963.1
20260906111544 57 103 0.0 2.0 0.00 0.00 0.00 96 963.1
20260906110040 57 85 0.0 2.0 0.00 0.00 0.00 96 962.9
20260906104538 57 188 0.0 2.0 0.00 0.00 0.00 96 962.8
20260906103037 57 189 0.0 3.0 0.00 0.00 0.00 96 962.6
20260906101538 57 169 1.0 2.0 0.00 0.00 0.00 96 962.5
20260906100034 57 216 0.0 2.0 0.00 0.00 0.00 96 962.4
20260906094535 57 205 0.0 0.0 0.00 0.00 0.00 96 962.2
20260906093032 58 204 0.0 0.0 0.00 0.00 0.00 96 961.8
20260906091532 58 204 0.0 0.0 0.00 0.00 0.00 96 961.7
20260906090029 58 204 0.0 0.0 0.00 0.00 0.00 97 961.6
20260906084529 57 204 0.0 0.0 0.00 0.00 0.00 96 961.5
20260906083032 57 204 0.0 0.0 0.00 0.00 0.00 96 961.3
20260906081534 57 207 0.0 0.0 0.00 0.00 0.00 96 961.4
20260906080026 57 207 0.0 0.0 0.00 0.00 0.00 96 961.2
20260906074524 57 207 0.0 0.0 0.00 0.00 0.00 96 961.2
20260906073023 58 207 0.0 0.0 0.00 0.00 0.00 96 961.3
20260906071522 58 207 0.0 0.0 0.00 0.00 0.00 96 961.5
20260906070021 58 207 0.0 0.0 0.00 0.00 0.00 95 961.3
20260906064519 58 207 0.0 0.0 0.00 0.00 0.00 96 961.2
20260906063020 58 207 0.0 0.0 0.00 0.00 0.00 95 961.5
20260906061519 58 207 0.0 0.0 0.00 0.00 0.00 95 961.6
20260906060019 58 207 0.0 0.0 0.00 0.00 0.00 95 961.5
20260906054517 58 207 0.0 1.0 0.00 0.00 0.00 95 961.5
20260906053015 58 207 0.0 0.0 0.00 0.00 0.00 95 961.6
20260906051514 59 207 0.0 1.0 0.00 0.00 0.00 94 961.6
20260906050038 59 207 0.0 1.0 0.00 0.00 0.00 94 961.5
20260906044512 59 207 0.0 2.0 0.00 0.00 0.00 94 961.4
20260906043011 59 207 0.0 1.0 0.00 0.00 0.00 94 961.4
20260906041509 60 207 0.0 2.0 0.00 0.00 0.00 94 961.5
20260906040006 60 169 0.0 3.0 0.00 0.00 0.00 93 961.5
20260906034506 60 164 0.0 2.0 0.00 0.00 0.00 93 961.5
20260906033002 60 126 0.0 3.0 0.00 0.00 0.00 93 961.5
20260906031503 60 203 0.0 0.0 0.00 0.00 0.00 93 961.3
20260906030001 61 219 0.0 0.0 0.00 0.00 0.00 93 961.3
20260906024500 61 219 0.0 0.0 0.00 0.00 0.00 93 961.4
20260906023121 61 219 0.0 2.0 0.00 0.00 0.00 92 961.3
20260906021612 61 134 0.0 0.0 0.00 0.00 0.00 91 961.3
20260906020101 62 134 0.0 0.0 0.00 0.00 0.00 91 961.2
20260906014606 62 117 0.0 1.0 0.00 0.00 0.00 91 961.1
20260906013058 62 215 0.0 1.0 0.00 0.00 0.00 91 961.0
20260906011603 62 214 0.0 0.0 0.00 0.00 0.00 91 961.0
20260906010056 62 214 0.0 1.0 0.00 0.00 0.00 90 961.0
20260906004557 62 214 0.0 0.0 0.00 0.00 0.00 90 960.9
20260906003104 63 214 0.0 0.0 0.00 0.00 0.00 89 960.6
20260906001553 63 214 0.0 1.0 0.00 0.00 0.00 89 960.5
20260906000052 63 208 0.0 1.0 0.00 0.00 0.00 88 960.5
20260905234601 63 208 0.0 2.0 0.00 0.00 0.00 88 960.5
20260905233052 64 212 0.0 1.0 0.00 0.00 0.00 88 960.6
20260905231551 64 211 0.0 1.0 0.00 0.00 0.00 87 960.6
20260905230053 65 206 0.0 2.0 0.00 0.00 0.00 87 960.5
20260905224550 65 211 0.0 3.0 0.00 0.00 0.00 85 960.5
20260905223051 66 40 0.0 2.0 0.00 0.00 0.00 85 960.4
20260905221549 67 189 0.0 2.0 0.00 0.00 0.00 85 960.2
20260905220051 67 178 0.0 1.0 0.00 0.00 0.00 84 960.1
20260905214602 67 348 0.0 2.0 0.00 0.00 0.00 84 960.0
20260905213048 67 300 0.0 3.0 0.00 0.00 0.00 83 959.9
20260905211547 67 279 0.0 4.0 0.00 0.00 0.00 83 959.8
20260905210048 68 221 0.0 4.0 0.00 0.00 0.00 84 959.8
20260905204545 68 231 0.0 2.0 0.00 0.00 0.00 84 959.6
20260905203046 67 173 0.0 2.0 0.00 0.00 0.00 82 959.7
20260905201545 68 318 0.0 2.0 0.00 0.00 0.00 82 959.7
20260905200047 68 315 0.0 1.0 0.00 0.00 0.00 81 959.8
20260905194543 69 315 0.0 2.0 0.00 0.00 0.00 81 959.8